Consulta les dades en temps real de l'estació meteorològica de Bagà
| Hora UTC | 15:15 |
|---|---|
| Temperatura | 29.0 ºC |
| Humitat | 42.0 % |
| Pressió | 1020.2 hPa |
| Pluja | 0.0 mm |
| Velocitat vent | 0.0 km/h |
| Direcció vent | ENE |
| Radiació solar | 47.0 W/m² |
| Temperatura (ºC) | Humitat (%) | Pressió (hPa) | Velocitat vent (km/h) | Precipitació (mm) | Radiació solar (W/m²) | |||||||||||||
|---|---|---|---|---|---|---|---|---|---|---|---|---|---|---|---|---|---|---|
| Hora UTC | Aire | Humitat | Pressió | Vel. | Dir. | Vel. Max | Dir. | Intent. màx 5 min. | Rad. Sol. | |||||||||
| 00:05 | 14.9 | 79.0 | 1020.8 | 0.0 | ENE | 0.0 | 0.0 | 0.0 | ||||||||||
| 00:10 | 14.8 | 80.0 | 1020.8 | 0.0 | ENE | 0.0 | 0.0 | 0.0 | ||||||||||
| 00:15 | 14.6 | 81.0 | 1020.8 | 0.0 | ENE | 0.0 | 0.0 | 0.0 | ||||||||||
| 00:20 | 14.5 | 81.0 | 1020.8 | 0.0 | ENE | 0.0 | 0.0 | 0.0 | ||||||||||
| 00:25 | 14.4 | 81.0 | 1020.8 | 0.0 | ENE | 0.0 | 0.0 | 0.0 | ||||||||||
| 00:30 | 14.3 | 82.0 | 1020.8 | 0.0 | ENE | 0.0 | 0.0 | 0.0 | ||||||||||
| 00:35 | 14.2 | 83.0 | 1020.7 | 0.0 | ENE | 0.0 | 0.0 | 0.0 | ||||||||||
| 00:40 | 14.2 | 82.0 | 1020.7 | 0.0 | ENE | 0.0 | 0.0 | 0.0 | ||||||||||
| 00:45 | 14.3 | 82.0 | 1020.6 | 0.0 | ENE | 0.0 | 0.0 | 0.0 | ||||||||||
| 00:50 | 14.3 | 82.0 | 1020.7 | 0.0 | ENE | 0.0 | 0.0 | 0.0 | ||||||||||
| 00:55 | 14.3 | 82.0 | 1020.7 | 0.0 | ENE | 0.0 | 0.0 | 0.0 | ||||||||||
| 01:00 | 14.4 | 82.0 | 1020.7 | 0.0 | ENE | 0.0 | 0.0 | 0.0 | ||||||||||
| 01:05 | 14.4 | 82.0 | 1020.7 | 0.0 | ENE | 0.0 | 0.0 | 0.0 | ||||||||||
| 01:10 | 14.3 | 82.0 | 1020.8 | 0.0 | ENE | 0.0 | 0.0 | 0.0 | ||||||||||
| 01:15 | 14.2 | 82.0 | 1020.7 | 0.0 | ENE | 0.0 | 0.0 | 0.0 | ||||||||||
| 01:20 | 14.1 | 83.0 | 1020.7 | 0.0 | ENE | 0.0 | 0.0 | 0.0 | ||||||||||
| 01:25 | 14.1 | 83.0 | 1020.8 | 0.0 | ENE | 0.0 | 0.0 | 0.0 | ||||||||||
| 01:30 | 14.1 | 83.0 | 1020.7 | 0.0 | ENE | 0.0 | 0.0 | 0.0 | ||||||||||
| 01:35 | 14.1 | 83.0 | 1020.7 | 0.0 | ENE | 0.0 | 0.0 | 0.0 | ||||||||||
| 01:40 | 14.0 | 83.0 | 1020.7 | 0.0 | ENE | 0.0 | 0.0 | 0.0 | ||||||||||
| 01:45 | 14.0 | 83.0 | 1020.6 | 0.0 | ENE | 0.0 | 0.0 | 0.0 | ||||||||||
| 01:50 | 14.1 | 83.0 | 1020.6 | 0.0 | ENE | 0.0 | 0.0 | 0.0 | ||||||||||
| 01:55 | 14.1 | 83.0 | 1020.7 | 0.0 | W | 0.0 | 0.0 | 0.0 | ||||||||||
| 02:00 | 14.0 | 83.0 | 1020.7 | 0.0 | W | 0.0 | 0.0 | 0.0 | ||||||||||
| 02:05 | 13.9 | 83.0 | 1020.7 | 0.0 | W | 0.0 | 0.0 | 0.0 | ||||||||||
| 02:10 | 13.9 | 83.0 | 1020.7 | 0.0 | W | 0.0 | 0.0 | 0.0 | ||||||||||
| 02:15 | 13.8 | 84.0 | 1020.6 | 0.0 | W | 0.0 | 0.0 | 0.0 | ||||||||||
| 02:20 | 13.8 | 84.0 | 1020.6 | 0.0 | W | 0.0 | 0.0 | 0.0 | ||||||||||
| 02:25 | 13.7 | 84.0 | 1020.6 | 0.0 | W | 0.0 | 0.0 | 0.0 | ||||||||||
| 02:30 | 13.5 | 85.0 | 1020.6 | 4.8 | ENE | 4.8 | 0.0 | 0.0 | ||||||||||
| 02:35 | 13.3 | 86.0 | 1020.6 | 0.0 | ENE | 4.8 | 0.0 | 0.0 | ||||||||||
| 02:40 | 13.1 | 86.0 | 1020.7 | 0.0 | ENE | 1.6 | 0.0 | 0.0 | ||||||||||
| 02:45 | 13.1 | 86.0 | 1020.9 | 0.0 | ENE | 1.6 | 0.0 | 0.0 | ||||||||||
| 02:50 | 12.9 | 87.0 | 1020.8 | 0.0 | ENE | 0.0 | 0.0 | 0.0 | ||||||||||
| 02:55 | 13.0 | 87.0 | 1020.8 | 0.0 | ENE | 0.0 | 0.0 | 0.0 | ||||||||||
| 03:00 | 13.1 | 87.0 | 1020.8 | 0.0 | ENE | 0.0 | 0.0 | 0.0 | ||||||||||
| 03:05 | 12.9 | 87.0 | 1020.8 | 0.0 | ENE | 0.0 | 0.0 | 0.0 | ||||||||||
| 03:10 | 12.9 | 87.0 | 1020.9 | 0.0 | ENE | 0.0 | 0.0 | 0.0 | ||||||||||
| 03:15 | 12.9 | 87.0 | 1020.9 | 0.0 | ENE | 0.0 | 0.0 | 0.0 | ||||||||||
| 03:20 | 12.9 | 87.0 | 1020.8 | 0.0 | ENE | 0.0 | 0.0 | 0.0 | ||||||||||
| 03:25 | 13.0 | 87.0 | 1020.8 | 0.0 | ENE | 0.0 | 0.0 | 0.0 | ||||||||||
| 03:30 | 13.0 | 87.0 | 1020.9 | 0.0 | ENE | 0.0 | 0.0 | 0.0 | ||||||||||
| 03:35 | 13.0 | 87.0 | 1020.9 | 0.0 | ENE | 0.0 | 0.0 | 0.0 | ||||||||||
| 03:40 | 13.0 | 87.0 | 1020.9 | 0.0 | ENE | 0.0 | 0.0 | 0.0 | ||||||||||
| 03:45 | 13.0 | 87.0 | 1020.9 | 0.0 | ENE | 0.0 | 0.0 | 0.0 | ||||||||||
| 03:50 | 13.0 | 87.0 | 1020.8 | 0.0 | ENE | 0.0 | 0.0 | 0.0 | ||||||||||
| 03:55 | 12.9 | 87.0 | 1020.8 | 0.0 | ENE | 0.0 | 0.0 | 0.0 | ||||||||||
| 04:00 | 12.9 | 87.0 | 1020.9 | 0.0 | ENE | 0.0 | 0.0 | 0.0 | ||||||||||
| 04:05 | 12.9 | 87.0 | 1020.9 | 0.0 | ENE | 0.0 | 0.0 | 0.0 | ||||||||||
| 04:10 | 12.9 | 87.0 | 1020.9 | 0.0 | ENE | 0.0 | 0.0 | 0.0 | ||||||||||
| 04:15 | 12.8 | 87.0 | 1020.8 | 0.0 | ENE | 0.0 | 0.0 | 0.0 | ||||||||||
| 04:20 | 12.8 | 88.0 | 1020.8 | 0.0 | ENE | 0.0 | 0.0 | 0.0 | ||||||||||
| 04:25 | 12.7 | 88.0 | 1020.8 | 0.0 | ENE | 0.0 | 0.0 | 0.0 | ||||||||||
| 04:30 | 12.7 | 88.0 | 1020.8 | 0.0 | ENE | 0.0 | 0.0 | 0.0 | ||||||||||
| 04:35 | 12.6 | 88.0 | 1020.9 | 0.0 | ENE | 0.0 | 0.0 | 0.0 | ||||||||||
| 04:40 | 12.6 | 88.0 | 1020.8 | 0.0 | ENE | 0.0 | 0.0 | 0.0 | ||||||||||
| 04:45 | 12.5 | 88.0 | 1020.8 | 0.0 | ENE | 0.0 | 0.0 | 0.0 | ||||||||||
| 04:50 | 12.4 | 88.0 | 1020.9 | 0.0 | ENE | 0.0 | 0.0 | 0.0 | ||||||||||
| 04:55 | 12.3 | 89.0 | 1020.9 | 0.0 | ENE | 0.0 | 0.0 | 0.0 | ||||||||||
| 05:00 | 12.2 | 89.0 | 1020.9 | 0.0 | ENE | 0.0 | 0.0 | 0.0 | ||||||||||
| 05:05 | 12.2 | 89.0 | 1020.9 | 0.0 | ENE | 0.0 | 0.0 | 0.0 | ||||||||||
| 05:10 | 12.2 | 90.0 | 1020.9 | 0.0 | ENE | 0.0 | 0.0 | 0.0 | ||||||||||
| 05:15 | 12.2 | 90.0 | 1020.9 | 0.0 | ENE | 0.0 | 0.0 | 0.0 | ||||||||||
| 05:20 | 12.2 | 90.0 | 1020.9 | 0.0 | ENE | 1.6 | 0.0 | 0.0 | ||||||||||
| 05:25 | 12.4 | 90.0 | 1020.9 | 0.0 | ENE | 1.6 | 0.0 | 5.0 | ||||||||||
| 05:30 | 12.4 | 89.0 | 1021.0 | 0.0 | ENE | 0.0 | 0.0 | 7.0 | ||||||||||
| 05:35 | 12.4 | 89.0 | 1021.0 | 0.0 | ENE | 0.0 | 0.0 | 9.0 | ||||||||||
| 05:40 | 12.4 | 89.0 | 1021.0 | 0.0 | ENE | 0.0 | 0.0 | 9.0 | ||||||||||
| 05:45 | 12.4 | 89.0 | 1021.1 | 0.0 | ENE | 0.0 | 0.0 | 11.0 | ||||||||||
| 05:50 | 12.4 | 89.0 | 1021.1 | 0.0 | ENE | 0.0 | 0.0 | 12.0 | ||||||||||
| 05:55 | 12.4 | 89.0 | 1021.0 | 0.0 | ENE | 0.0 | 0.0 | 14.0 | ||||||||||
| 06:00 | 12.4 | 89.0 | 1021.1 | 0.0 | ENE | 0.0 | 0.0 | 14.0 | ||||||||||
| 06:05 | 12.4 | 89.0 | 1021.2 | 0.0 | ENE | 0.0 | 0.0 | 16.0 | ||||||||||
| 06:10 | 12.4 | 90.0 | 1021.2 | 0.0 | ENE | 0.0 | 0.0 | 18.0 | ||||||||||
| 06:15 | 12.7 | 90.0 | 1021.2 | 0.0 | ENE | 0.0 | 0.0 | 90.0 | ||||||||||
| 06:20 | 13.2 | 89.0 | 1021.3 | 0.0 | ENE | 0.0 | 0.0 | 104.0 | ||||||||||
| 06:25 | 13.8 | 87.0 | 1021.3 | 0.0 | ENE | 0.0 | 0.0 | 116.0 | ||||||||||
| 06:30 | 14.3 | 86.0 | 1021.3 | 0.0 | E | 0.0 | 0.0 | 135.0 | ||||||||||
| 06:35 | 14.7 | 85.0 | 1021.4 | 0.0 | E | 0.0 | 0.0 | 149.0 | ||||||||||
| 06:40 | 15.0 | 84.0 | 1021.4 | 0.0 | E | 0.0 | 0.0 | 156.0 | ||||||||||
| 06:45 | 15.2 | 84.0 | 1021.4 | 0.0 | E | 0.0 | 0.0 | 148.0 | ||||||||||
| 06:50 | 15.6 | 83.0 | 1021.4 | 0.0 | E | 0.0 | 0.0 | 148.0 | ||||||||||
| 06:55 | 16.0 | 81.0 | 1021.4 | 0.0 | E | 0.0 | 0.0 | 160.0 | ||||||||||
| 07:00 | 16.6 | 80.0 | 1021.4 | 0.0 | E | 0.0 | 0.0 | 186.0 | ||||||||||
| 07:05 | 17.0 | 78.0 | 1021.4 | 0.0 | S | 0.0 | 0.0 | 204.0 | ||||||||||
| 07:10 | 17.3 | 77.0 | 1021.4 | 0.0 | S | 0.0 | 0.0 | 213.0 | ||||||||||
| 07:15 | 17.7 | 75.0 | 1021.5 | 0.0 | S | 0.0 | 0.0 | 220.0 | ||||||||||
| 07:20 | 17.9 | 73.0 | 1021.5 | 0.0 | S | 0.0 | 0.0 | 229.0 | ||||||||||
| 07:25 | 18.2 | 72.0 | 1021.5 | 0.0 | S | 0.0 | 0.0 | 239.0 | ||||||||||
| 07:30 | 18.5 | 73.0 | 1021.5 | 0.0 | WSW | 0.0 | 0.0 | 246.0 | ||||||||||
| 07:35 | 18.8 | 71.0 | 1021.4 | 0.0 | WSW | 0.0 | 0.0 | 237.0 | ||||||||||
| 07:40 | 19.2 | 71.0 | 1021.4 | 0.0 | WSW | 0.0 | 0.0 | 232.0 | ||||||||||
| 07:45 | 19.5 | 69.0 | 1021.4 | 0.0 | SSW | 0.0 | 0.0 | 239.0 | ||||||||||
| 07:50 | 19.7 | 70.0 | 1021.4 | 0.0 | SSW | 1.6 | 0.0 | 271.0 | ||||||||||
| 07:55 | 19.8 | 68.0 | 1021.4 | 0.0 | S | 1.6 | 0.0 | 315.0 | ||||||||||
| 08:00 | 20.1 | 67.0 | 1021.4 | 0.0 | SE | 0.0 | 0.0 | 320.0 | ||||||||||
| 08:05 | 20.6 | 67.0 | 1021.5 | 0.0 | SSE | 1.6 | 0.0 | 325.0 | ||||||||||
| 08:10 | 20.9 | 65.0 | 1021.5 | 0.0 | SSE | 0.0 | 0.0 | 339.0 | ||||||||||
| 08:15 | 21.4 | 64.0 | 1021.6 | 0.0 | ESE | 3.2 | 0.0 | 366.0 | ||||||||||
| 08:20 | 21.7 | 64.0 | 1021.6 | 0.0 | ESE | 3.2 | 0.0 | 411.0 | ||||||||||
| 08:25 | 22.1 | 63.0 | 1021.7 | 0.0 | ESE | 3.2 | 0.0 | 454.0 | ||||||||||
| 08:30 | 22.4 | 64.0 | 1021.7 | 0.0 | E | 3.2 | 0.0 | 480.0 | ||||||||||
| 08:35 | 22.8 | 62.0 | 1021.7 | 1.6 | ESE | 3.2 | 0.0 | 492.0 | ||||||||||
| 08:40 | 23.2 | 57.0 | 1021.7 | 1.6 | NE | 6.4 | 0.0 | 508.0 | ||||||||||
| 08:45 | 23.5 | 59.0 | 1021.7 | 1.6 | ESE | 6.4 | 0.0 | 517.0 | ||||||||||
| 08:50 | 23.8 | 56.0 | 1021.7 | 1.6 | SE | 8.0 | 0.0 | 533.0 | ||||||||||
| 08:55 | 24.2 | 56.0 | 1021.8 | 1.6 | SE | 8.0 | 0.0 | 547.0 | ||||||||||
| 09:00 | 24.8 | 51.0 | 1021.8 | 4.8 | E | 9.7 | 0.0 | 564.0 | ||||||||||
| 09:05 | 24.7 | 50.0 | 1021.9 | 1.6 | SE | 11.3 | 0.0 | 573.0 | ||||||||||
| 09:10 | 25.1 | 50.0 | 1021.9 | 3.2 | ESE | 11.3 | 0.0 | 580.0 | ||||||||||
| 09:15 | 25.6 | 48.0 | 1021.9 | 0.0 | E | 8.0 | 0.0 | 594.0 | ||||||||||
| 09:20 | 25.7 | 46.0 | 1021.9 | 1.6 | S | 8.0 | 0.0 | 605.0 | ||||||||||
| 09:25 | 25.8 | 45.0 | 1021.9 | 8.0 | ESE | 9.7 | 0.0 | 613.0 | ||||||||||
| 09:30 | 25.8 | 47.0 | 1021.9 | 4.8 | S | 9.7 | 0.0 | 624.0 | ||||||||||
| 09:35 | 25.9 | 47.0 | 1021.8 | 4.8 | ESE | 11.3 | 0.0 | 635.0 | ||||||||||
| 09:40 | 26.1 | 46.0 | 1021.8 | 1.6 | S | 11.3 | 0.0 | 643.0 | ||||||||||
| 09:45 | 26.6 | 45.0 | 1021.8 | 1.6 | SE | 9.7 | 0.0 | 654.0 | ||||||||||
| 09:50 | 26.7 | 44.0 | 1021.8 | 1.6 | ESE | 9.7 | 0.0 | 663.0 | ||||||||||
| 09:55 | 27.0 | 45.0 | 1021.8 | 3.2 | S | 6.4 | 0.0 | 671.0 | ||||||||||
| 10:00 | 27.2 | 44.0 | 1021.8 | 0.0 | SE | 6.4 | 0.0 | 680.0 | ||||||||||
| 10:05 | 27.3 | 41.0 | 1021.8 | 1.6 | SSE | 6.4 | 0.0 | 689.0 | ||||||||||
| 10:10 | 27.1 | 43.0 | 1021.7 | 3.2 | ESE | 11.3 | 0.0 | 696.0 | ||||||||||
| 10:15 | 27.0 | 43.0 | 1021.8 | 3.2 | ENE | 11.3 | 0.0 | 703.0 | ||||||||||
| 10:20 | 27.3 | 45.0 | 1021.8 | 1.6 | S | 8.0 | 0.0 | 708.0 | ||||||||||
| 10:25 | 27.6 | 40.0 | 1021.7 | 3.2 | SE | 12.9 | 0.0 | 717.0 | ||||||||||
| 10:30 | 27.7 | 45.0 | 1021.7 | 1.6 | ESE | 12.9 | 0.0 | 722.0 | ||||||||||
| 10:35 | 27.9 | 42.0 | 1021.8 | 6.4 | ESE | 8.0 | 0.0 | 728.0 | ||||||||||
| 10:40 | 27.8 | 44.0 | 1021.7 | 1.6 | ESE | 11.3 | 0.0 | 733.0 | ||||||||||
| 10:45 | 27.9 | 41.0 | 1021.7 | 6.4 | E | 11.3 | 0.0 | 738.0 | ||||||||||
| 10:50 | 28.1 | 41.0 | 1021.7 | 0.0 | ESE | 8.0 | 0.0 | 744.0 | ||||||||||
| 10:55 | 28.3 | 39.0 | 1021.8 | 6.4 | ESE | 9.7 | 0.0 | 747.0 | ||||||||||
| 11:00 | 28.2 | 38.0 | 1021.7 | 0.0 | SE | 9.7 | 0.0 | 751.0 | ||||||||||
| 11:05 | 28.2 | 38.0 | 1021.7 | 0.0 | SE | 11.3 | 0.0 | 756.0 | ||||||||||
| 11:10 | 27.9 | 40.0 | 1021.6 | 3.2 | ESE | 12.9 | 0.0 | 758.0 | ||||||||||
| 11:15 | 28.2 | 39.0 | 1021.6 | 8.0 | E | 12.9 | 0.0 | 765.0 | ||||||||||
| 11:20 | 27.9 | 40.0 | 1021.4 | 6.4 | E | 11.3 | 0.0 | 763.0 | ||||||||||
| 11:25 | 28.2 | 40.0 | 1021.4 | 3.2 | ESE | 9.7 | 0.0 | 763.0 | ||||||||||
| 11:30 | 28.4 | 42.0 | 1021.4 | 0.0 | E | 9.7 | 0.0 | 765.0 | ||||||||||
| 11:35 | 28.6 | 40.0 | 1021.4 | 3.2 | S | 6.4 | 0.0 | 765.0 | ||||||||||
| 11:40 | 28.7 | 37.0 | 1021.4 | 8.0 | E | 9.7 | 0.0 | 768.0 | ||||||||||
| 11:45 | 28.3 | 41.0 | 1021.3 | 4.8 | E | 9.7 | 0.0 | 770.0 | ||||||||||
| 11:50 | 28.2 | 39.0 | 1021.3 | 0.0 | SE | 11.3 | 0.0 | 766.0 | ||||||||||
| 11:55 | 28.6 | 45.0 | 1021.3 | 1.6 | ENE | 11.3 | 0.0 | 766.0 | ||||||||||
| 12:00 | 29.0 | 40.0 | 1021.3 | 1.6 | SE | 8.0 | 0.0 | 770.0 | ||||||||||
| 12:05 | 29.4 | 38.0 | 1021.2 | 6.4 | E | 11.3 | 0.0 | 768.0 | ||||||||||
| 12:10 | 29.3 | 38.0 | 1021.2 | 8.0 | E | 11.3 | 0.0 | 770.0 | ||||||||||
| 12:15 | 29.3 | 41.0 | 1021.1 | 1.6 | S | 11.3 | 0.0 | 765.0 | ||||||||||
| 12:20 | 29.5 | 38.0 | 1021.1 | 0.0 | E | 6.4 | 0.0 | 765.0 | ||||||||||
| 12:25 | 29.4 | 39.0 | 1021.1 | 1.6 | SE | 4.8 | 0.0 | 763.0 | ||||||||||
| 12:30 | 29.4 | 39.0 | 1021.0 | 0.0 | E | 8.0 | 0.0 | 761.0 | ||||||||||
| 12:35 | 29.3 | 40.0 | 1021.0 | 3.2 | S | 11.3 | 0.0 | 759.0 | ||||||||||
| 12:40 | 29.4 | 37.0 | 1021.0 | 0.0 | ESE | 11.3 | 0.0 | 756.0 | ||||||||||
| 12:45 | 29.3 | 41.0 | 1021.0 | 0.0 | S | 6.4 | 0.0 | 749.0 | ||||||||||
| 12:50 | 29.6 | 38.0 | 1021.0 | 0.0 | ENE | 8.0 | 0.0 | 752.0 | ||||||||||
| 12:55 | 29.6 | 37.0 | 1021.0 | 3.2 | E | 8.0 | 0.0 | 744.0 | ||||||||||
| 13:00 | 29.6 | 39.0 | 1020.9 | 3.2 | S | 8.0 | 0.0 | 742.0 | ||||||||||
| 13:05 | 29.6 | 40.0 | 1020.9 | 4.8 | S | 8.0 | 0.0 | 740.0 | ||||||||||
| 13:10 | 29.7 | 40.0 | 1020.8 | 3.2 | ENE | 6.4 | 0.0 | 729.0 | ||||||||||
| 13:15 | 29.8 | 41.0 | 1020.8 | 1.6 | ESE | 8.0 | 0.0 | 717.0 | ||||||||||
| 13:20 | 29.8 | 41.0 | 1020.8 | 1.6 | S | 8.0 | 0.0 | 717.0 | ||||||||||
| 13:25 | 29.8 | 39.0 | 1020.7 | 4.8 | ESE | 11.3 | 0.0 | 712.0 | ||||||||||
| 13:30 | 29.8 | 40.0 | 1020.7 | 0.0 | ESE | 11.3 | 0.0 | 707.0 | ||||||||||
| 13:35 | 29.9 | 40.0 | 1020.7 | 0.0 | S | 11.3 | 0.0 | 701.0 | ||||||||||
| 13:40 | 30.0 | 39.0 | 1020.6 | 4.8 | E | 8.0 | 0.0 | 693.0 | ||||||||||
| 13:45 | 29.9 | 40.0 | 1020.5 | 0.0 | S | 8.0 | 0.0 | 687.0 | ||||||||||
| 13:50 | 30.1 | 39.0 | 1020.6 | 3.2 | ESE | 6.4 | 0.0 | 679.0 | ||||||||||
| 13:55 | 30.0 | 40.0 | 1020.5 | 0.0 | SSE | 8.0 | 0.0 | 664.0 | ||||||||||
| 14:00 | 29.8 | 38.0 | 1020.5 | 8.0 | E | 9.7 | 0.0 | 659.0 | ||||||||||
| 14:05 | 29.8 | 38.0 | 1020.5 | 0.0 | ESE | 9.7 | 0.0 | 649.0 | ||||||||||
| 14:10 | 29.9 | 40.0 | 1020.4 | 0.0 | SSE | 8.0 | 0.0 | 636.0 | ||||||||||
| 14:15 | 29.9 | 40.0 | 1020.4 | 3.2 | E | 8.0 | 0.0 | 628.0 | ||||||||||
| 14:20 | 29.9 | 41.0 | 1020.4 | 1.6 | ESE | 8.0 | 0.0 | 621.0 | ||||||||||
| 14:25 | 29.9 | 39.0 | 1020.4 | 1.6 | ESE | 12.9 | 0.0 | 612.0 | ||||||||||
| 14:30 | 29.6 | 42.0 | 1020.3 | 3.2 | SSE | 17.7 | 0.0 | 601.0 | ||||||||||
| 14:35 | 29.6 | 39.0 | 1020.4 | 9.7 | E | 17.7 | 0.0 | 596.0 | ||||||||||
| 14:40 | 29.4 | 40.0 | 1020.2 | 0.0 | SSE | 11.3 | 0.0 | 580.0 | ||||||||||
| 14:45 | 29.6 | 41.0 | 1020.2 | 0.0 | SE | 11.3 | 0.0 | 568.0 | ||||||||||
| 14:50 | 29.5 | 39.0 | 1020.2 | 0.0 | SE | 14.5 | 0.0 | 557.0 | ||||||||||
| 14:55 | 29.6 | 40.0 | 1020.1 | 4.8 | E | 14.5 | 0.0 | 547.0 | ||||||||||
| 15:00 | 29.3 | 40.0 | 1020.2 | 1.6 | SSE | 11.3 | 0.0 | 536.0 | ||||||||||
| 15:05 | 29.2 | 41.0 | 1020.1 | 0.0 | ESE | 16.1 | 0.0 | 49.0 | ||||||||||
| 15:10 | 29.0 | 41.0 | 1020.1 | 0.0 | SSE | 16.1 | 0.0 | 47.0 | ||||||||||
| 15:15 | 29.0 | 42.0 | 1020.2 | 0.0 | ENE | 8.0 | 0.0 | 47.0 | ||||||||||
| Màxima | 30.1 | 90.0 | 1021.9 | 9.7 | E | 17.7 | 0.0 | 770.0 | ||||||||||
| Mínima | 12.2 | 37.0 | 1020.1 | |||||||||||||||
| Total | 0.0 | |||||||||||||||||